2023/02/22 00:00:00,18.8,-2.1
2023/02/22 00:10:00,18.7,-2.2
2023/02/22 00:20:00,18.7,-2.3
2023/02/22 00:30:00,18.7,-2.4
2023/02/22 00:40:00,18.7,-2.1
2023/02/22 00:50:00,18.7,-2.5
2023/02/22 01:00:00,18.7,-2.2
2023/02/22 01:10:00,18.6,-2.4
2023/02/22 01:20:00,18.6,-2.0
2023/02/22 01:30:00,18.6,-2.4
2023/02/22 01:40:00,18.6,-2.3
2023/02/22 01:50:00,18.6,-2.2
2023/02/22 02:00:00,18.5,-2.4
2023/02/22 02:10:00,18.5,-2.3
2023/02/22 02:20:00,18.5,-2.1
2023/02/22 02:30:00,18.5,-2.4
2023/02/22 02:40:00,18.4,-2.2
2023/02/22 02:50:00,18.4,-2.0
2023/02/22 03:00:00,18.4,-2.3
2023/02/22 03:10:00,18.4,-1.9
2023/02/22 03:20:00,18.3,-2.2
2023/02/22 03:30:00,18.2,-2.3
2023/02/22 03:40:00,18.3,-2.3
2023/02/22 03:50:00,18.2,-2.4
2023/02/22 04:00:00,18.2,-2.1
2023/02/22 04:10:00,18.1,-2.0
2023/02/22 04:20:00,18.1,-2.3
2023/02/22 04:30:00,18.0,-2.0
2023/02/22 04:40:00,18.0,-1.8
2023/02/22 04:50:00,17.9,-1.9
2023/02/22 05:00:00,17.9,-2.0
2023/02/22 05:10:00,17.8,-2.1
2023/02/22 05:20:00,17.8,-1.9
2023/02/22 05:30:00,17.8,-2.3
2023/02/22 05:40:00,17.8,-2.0
2023/02/22 05:50:00,17.7,-2.1
2023/02/22 06:00:00,17.7,-2.0
2023/02/22 06:10:00,17.7,-1.9
2023/02/22 06:20:00,17.7,-2.3
2023/02/22 06:30:00,17.6,-2.0
2023/02/22 06:40:00,17.6,-2.2
2023/02/22 06:50:00,17.6,-2.1
2023/02/22 07:00:00,17.6,-2.1
2023/02/22 07:10:00,17.6,-2.0
2023/02/22 07:20:00,17.6,-1.8
2023/02/22 07:30:00,17.6,-1.8
2023/02/22 07:40:00,17.6,-1.5
2023/02/22 07:50:00,17.6,-1.4
2023/02/22 08:00:00,17.6,-1.2
2023/02/22 08:10:00,17.6,-1.0
2023/02/22 08:20:00,17.5,-0.6
2023/02/22 08:30:00,17.5,-0.8
2023/02/22 08:40:00,17.6,-0.3
2023/02/22 08:50:00,17.6,-0.1
2023/02/22 09:00:00,17.5,-0.0
2023/02/22 09:10:00,17.5,-0.0
2023/02/22 09:20:00,17.6, 0.1
2023/02/22 09:30:00,17.5, 0.6
2023/02/22 09:40:00,17.5, 0.7
2023/02/22 09:50:00,17.6, 1.0
2023/02/22 10:00:00,17.6, 1.3
2023/02/22 10:10:00,17.5, 1.3
2023/02/22 10:20:00,17.4, 1.6
2023/02/22 10:30:00,17.4, 1.9
2023/02/22 10:40:00,17.3, 2.4
2023/02/22 10:50:00,17.2, 2.2
2023/02/22 11:00:00,17.0, 2.3
2023/02/22 11:10:00,17.0, 2.5
2023/02/22 11:20:00,16.9, 3.2
2023/02/22 11:30:00,16.9, 2.7
2023/02/22 11:40:00,16.8, 2.7
2023/02/22 11:50:00,16.9, 3.8
2023/02/22 12:00:00,16.7, 4.5
2023/02/22 12:10:00,16.5, 4.5
2023/02/22 12:20:00,16.3, 3.8
2023/02/22 12:30:00,16.2, 4.2
2023/02/22 12:40:00,16.1, 4.3
2023/02/22 12:50:00,15.9, 4.8
2023/02/22 13:00:00,15.7, 5.2
2023/02/22 13:10:00,15.5, 5.1
2023/02/22 13:20:00,15.1, 5.4
2023/02/22 13:30:00,15.0, 5.1
2023/02/22 13:40:00,14.6, 5.5
2023/02/22 13:50:00,14.3, 5.4
2023/02/22 14:00:00,14.1, 6.1
2023/02/22 14:10:00,14.0, 5.7
2023/02/22 14:20:00,13.7, 3.4
2023/02/22 14:30:00,13.6, 3.2
2023/02/22 14:40:00,13.5, 3.2
2023/02/22 14:50:00,13.4, 2.3
2023/02/22 15:00:00,13.3, 2.6
2023/02/22 15:10:00,13.3, 2.3
2023/02/22 15:20:00,13.2, 1.8
2023/02/22 15:30:00,13.2, 1.9
2023/02/22 15:40:00,13.2, 2.0
2023/02/22 15:50:00,13.1, 2.1
2023/02/22 16:00:00,13.1, 2.0
2023/02/22 16:10:00,13.1, 2.2
2023/02/22 16:20:00,13.1, 2.1
2023/02/22 16:30:00,13.0, 2.0
2023/02/22 16:40:00,13.0, 2.2
2023/02/22 16:50:00,13.0, 2.0
2023/02/22 17:00:00,12.9, 2.0
2023/02/22 17:10:00,12.9, 1.8
2023/02/22 17:20:00,12.9, 1.7
2023/02/22 17:30:00,12.9, 1.4
2023/02/22 17:40:00,12.9, 1.3
2023/02/22 17:50:00,12.9, 1.0
2023/02/22 18:00:00,12.9, 1.0
2023/02/22 18:10:00,12.8, 0.8
2023/02/22 18:20:00,12.8, 0.8
2023/02/22 18:30:00,12.9, 0.5
2023/02/22 18:40:00,12.9, 0.4
2023/02/22 18:50:00,12.9, 0.4
2023/02/22 19:00:00,12.8, 0.5
2023/02/22 19:10:00,12.7, 0.4
2023/02/22 19:20:00,12.7, 0.7
2023/02/22 19:30:00,12.7, 0.7
2023/02/22 19:40:00,12.7, 0.6
2023/02/22 19:50:00,12.7, 0.8
2023/02/22 20:00:00,12.7, 1.1
2023/02/22 20:10:00,12.7, 0.5
2023/02/22 20:20:00,12.7, 0.6
2023/02/22 20:30:00,12.7, 0.5
2023/02/22 20:40:00,12.7, 0.6
2023/02/22 20:50:00,12.7, 0.8
2023/02/22 21:00:00,12.7, 1.4
2023/02/22 21:10:00,12.7, 1.4
2023/02/22 21:20:00,12.7, 1.2
2023/02/22 21:30:00,12.7, 1.4
2023/02/22 21:40:00,12.7, 1.4
2023/02/22 21:50:00,12.7, 1.1
2023/02/22 22:00:00,12.7, 1.5
2023/02/22 22:10:00,12.7, 1.6
2023/02/22 22:20:00,12.7, 1.5
2023/02/22 22:30:00,12.7, 1.1
2023/02/22 22:40:00,12.6, 1.1
2023/02/22 22:50:00,12.6, 1.3
2023/02/22 23:00:00,12.6, 1.2
2023/02/22 23:10:00,12.6, 1.4
2023/02/22 23:20:00,12.6, 1.6
2023/02/22 23:30:00,12.5, 1.4
2023/02/22 23:40:00,12.5, 1.3
2023/02/22 23:50:00,12.5, 1.1
